Tracking 29892 objects as of 21-Nov-2024
HD Live streaming from Space Station
objects crossing your sky now

CZ-6A DEB

Track CZ-6A DEB now!
10-day predictions


NORAD ID: 55895
Int'l Code: 2022-151AAT
Perigee: 631.7 km
Apogee: 823.0 km
Inclination: 98.6 °
Period: 99.2 minutes
Semi major axis: 7098 km
RCS: Unknown
Launch date: November 11, 2022
Source: People's Republic of China (PRC)
Launch site: Taiyaun Space Center, China (TSC)

Note: This is SATELLITE DEBRIS
Your satellite tracking list
Your tracking list is empty




NASA's NSSDC Master Catalog

Two Line Element Set (TLE):
1 55895U 22151AAT 24324.01516823  .00019138  00000-0  42393-2 0  9999
2 55895  98.6292 343.3868 0134747 294.5448  64.1750 14.51677146100496
Source of the keplerian elements: AFSPC